{"data":{"norad_id":45187,"intl_designator":"2020-012K","name":"STARLINK-1225","alt_names":[],"object_type":"PAYLOAD","status":"ACTIVE","operator":null,"country":"US","launch_date":"2020-02-17","launch_site_code":"AFETR","launch_vehicle":null,"mission":null,"orbit_class":"UNKNOWN","rcs_meters":null,"size_class":null,"mass_kg":null,"dimensions":null,"purposes":["comms"],"wikipedia_slug":null,"has_3d_model":false,"image_url":null,"decayed_at":null,"tle_current":{"epoch":"2026-09-19T11:30:06.363648Z","epoch_age_seconds":102686,"freshness":"FRESH","line1":"1 45187U 20012K   26262.47924032  .00042460  00000+0  94548-3 0  9997","line2":"2 45187  53.1514 211.8186 0001713  91.7898 268.3305 15.43224302364711","mean_motion":15.43224302,"eccentricity":0.0001713,"inclination_deg":53.1514,"raan_deg":211.8186,"arg_perigee_deg":91.7898,"mean_anomaly_deg":268.3305,"bstar":0.00094548,"rev_number":36471,"period_min":93.311127755944,"perigee_km":435.43324700777,"apogee_km":437.76797611349,"semimajor_km":6814.7376115606,"source":"CELESTRAK","updated_at":"2026-09-20T09:00:38.226222Z"}}}